{"data":{"norad_id":44859,"intl_designator":"2019-089H","name":"IHOPSAT-TD","alt_names":[],"object_type":"PAYLOAD","status":"ACTIVE","operator":null,"country":"US","launch_date":"2019-12-11","launch_site_code":"SRILR","launch_vehicle":null,"mission":null,"orbit_class":"UNKNOWN","rcs_meters":null,"size_class":null,"mass_kg":null,"dimensions":null,"purposes":[],"wikipedia_slug":null,"has_3d_model":false,"image_url":null,"decayed_at":null,"tle_current":{"epoch":"2026-09-20T02:36:34.396416Z","epoch_age_seconds":95529,"freshness":"FRESH","line1":"1 44859U 19089H   26263.10873144  .00001911  00000+0  11332-3 0  9998","line2":"2 44859  36.9661 186.0663 0006178 296.7882  63.2232 15.12239735372364","mean_motion":15.12239735,"eccentricity":0.0006178,"inclination_deg":36.9661,"raan_deg":186.0663,"arg_perigee_deg":296.7882,"mean_anomaly_deg":63.2232,"bstar":0.00011332,"rev_number":37236,"period_min":95.222997165856,"perigee_km":525.10377368149,"apogee_km":533.63869085327,"semimajor_km":6907.5082322674,"source":"CELESTRAK","updated_at":"2026-09-20T09:00:14.567628Z"}}}